Regional Weather Roundup
Issued by NWS Albany, NY

Home | Current Version | Previous Version | Graphics & Text | Print | Product List | Glossary On
Versions: 1 2 3 4 5 6 7 8 9 10 11 12 13 14 15 16 17 18 19 20 21 22 23 24 25 26 27 28 29 30 31 32 33 34 35 36 37 38 39 40 41 42 43 44 45 46 47 48 49 50
000
ASUS41 KALY 271210
RWRALY

NEW YORK STATE HOURLY WEATHER ROUNDUP
NATIONAL WEATHER SERVICE ALBANY NY
800 AM EDT SAT MAY 27 2017

NOTE: "FAIR" INDICATES FEW OR NO CLOUDS BELOW 12,000 FEET WITH NO
SIGNIFICANT WEATHER AND/OR NO OBSTRUCTIONS TO VISIBILITY.

NYZ032-033-038>043-046>054-057>066-NYZ062>081-082-084-271300-
EAST


CITY           SKY/WX    TMP DP  RH WIND       PRES   REMARKS
ALBANY         PTSUNNY   56  51  84 NW5       29.89R
GLENS FALLS    NOT AVBL
POUGHKEEPSIE   CLOUDY    58  53  84 CALM      29.88R
NEWBURGH       PTSUNNY   59  55  88 CALM      29.89S
MONTGOMERY     CLOUDY    61  55  81 CALM      29.87S
WHITE PLAINS   MOSUNNY   62  53  72 N7        29.86F
ISLIP          PTSUNNY   63  55  75 N8        29.87R
NEW YORK CITY  MOSUNNY   65  54  67 NW9       29.87S
CENTRAL PARK   MOSUNNY   63  55  75 VRB3      29.90S
$$

NYZ005>009-017-018-044>046-055-056-271300-
CENTRAL


CITY           SKY/WX    TMP DP  RH WIND       PRES   REMARKS
FULTON         LGT RAIN  57  55  93 S3        29.89S FOG
SYRACUSE       DRIZZLE   56  56 100 CALM      29.89S FOG
ROME           CLOUDY    55  50  83 CALM      29.91R
ELMIRA         CLOUDY    60  53  77 SW3       29.90R
BINGHAMTON     CLOUDY    53  53 100 VRB6      29.89S FOG
MONTICELLO     PTSUNNY   55  55 100 W6        29.90S
$$

NYZ026>034-041>043-087-271300-
NORTH


CITY           SKY/WX    TMP DP  RH WIND       PRES   REMARKS
WATERTOWN      CLOUDY    57  52  83 E8        29.90R
FORT DRUM      NOT AVBL
OGDENSBURG     FAIR      56  55  97 CALM      29.91S
MASSENA        CLOUDY    55  54  96 S3        29.92R
SARANAC LAKE   CLOUDY    47  47 100 CALM      29.90S
PLATTSBURGH    CLOUDY    55  49  80 CALM      29.90R
$$

NYZ001>004-010>016-019>021-085-271300-
WEST


CITY           SKY/WX    TMP DP  RH WIND       PRES   REMARKS
NIAGARA FALLS  CLOUDY    58  54  86 SW5       29.89S FOG
BUFFALO        CLOUDY    56  53  90 SW7       29.90S
DUNKIRK        MOSUNNY   57  53  86 SW6       29.91S
JAMESTOWN      PTSUNNY   52  50  93 S3        29.92S
WELLSVILLE     MOSUNNY   56  51  84 VRB3      29.93R
ROCHESTER      CLOUDY    58  55  90 W3        29.90R
PENN YAN       CLOUDY    60  53  77 CALM      29.91R
$$

             KEY
       WCI = WIND CHILL INDEX
       VSB = VISIBILITY
       HX  = HEAT INDEX
$$



USA.gov is the U.S. government's official web portal to all federal, state and local government web resources and services.